Flag for Japan Weather past 2 weeks in Yokohama, Japan

Now
79 °F

Clear.


Feels Like: 82 °F
Forecast: 80 / 89 °F
Wind: 5 mph from South

Location: Tokyo International Airport

Current Time: Jul 24, 2014 at 5:27:31 AM

Latest Report: Jul 24, 2014 at 5:00 AM


Visibility: 5 mi

Pressure: 29.59 "Hg

Humidity: 89%

Dew point: 75 °F

Location of YokohamaLocation

Historic Weather in Yokohama — Graph

°F

Yokohama temperature yesterday

Maximum temperature yesterday: 88 °F (at 12:30 PM)
Minimum temperature yesterday: 79 °F (at 1:30 AM)
Average temperature yesterday: 83 °F

Past Weeks' High & Low Weather Summary

 TemperatureHumidityPressure
High90 °F (Jul 12, 3:00 PM)100% (Jul 11, 4:00 AM)29.95 "Hg (Jul 11, 4:00 AM)
Low72 °F (Jul 19, 2:00 AM)52% (Jul 12, 3:00 PM)29.21 "Hg (Jul 11, 5:00 AM)
Average79 °F82%29.74 "Hg
* Reported Jul 9 4:00 AM — Jul 24 4:00 AM, Yokohama, Weather by CustomWeather, © 2014

Note: Actual official high and low records may vary slightly from our data, if they occured in-between our weather recording intervals... More about our weather records

Advertising

Yokohama weather history for previous 24 hours

 ConditionsComfort  
Time TempWeatherWind HumidityBarometerVisibility
4:00 AM
Jul 24
79 °FPassing clouds.2 mph84%29.59 "Hg6 mi
3:30 AM81 °FPassing clouds.5 mph79%29.59 "HgN/A
3:00 AM79 °FClear.5 mph84%29.59 "Hg10 mi
2:30 AM81 °FClear.6 mph79%29.59 "Hg10 mi
2:00 AM79 °FClear.7 mph84%29.59 "Hg10 mi
1:30 AM79 °FClear.9 mph84%29.59 "Hg10 mi
1:00 AM81 °FClear.10 mph79%29.59 "Hg10 mi
12:30 AM81 °FClear.8 mph79%29.59 "Hg10 mi
12:00 AM81 °FClear.10 mph79%29.59 "Hg10 mi
11:30 PM
Jul 23
81 °FClear.9 mph79%29.62 "Hg10 mi
11:00 PM82 °FClear.12 mph79%29.62 "Hg6 mi
10:30 PM81 °FClear.9 mph84%29.62 "Hg5 mi
10:00 PM81 °FClear.10 mph84%29.62 "Hg5 mi
9:30 PM81 °FClear.7 mph84%29.62 "Hg5 mi
9:00 PM81 °FClear.9 mph84%29.62 "Hg5 mi
8:30 PM81 °FClear.13 mph84%29.62 "Hg4 mi
8:00 PM81 °FClear.14 mph84%29.62 "Hg4 mi
7:30 PM82 °FPassing clouds.13 mph79%29.62 "Hg4 mi
7:00 PM81 °FPassing clouds.14 mph84%29.62 "Hg4 mi
6:30 PM82 °FPartly sunny.13 mph79%29.62 "Hg4 mi
6:00 PM82 °FPartly sunny.14 mph79%29.59 "Hg4 mi
2:30 PM86 °FPartly sunny.17 mph70%29.62 "HgN/A
2:00 PM86 °FPartly sunny.14 mph70%29.62 "HgN/A
1:30 PM88 °FClear.12 mph66%29.65 "Hg5 mi
1:00 PM88 °FClear.8 mph62%29.65 "Hg5 mi
12:30 PM88 °FClear.8 mph66%29.65 "Hg4 mi
12:00 PM86 °FPartly sunny.8 mph75%29.68 "Hg4 mi
11:30 AM84 °FPartly sunny.6 mph79%29.68 "Hg4 mi
11:00 AM84 °FFog.6 mph79%29.68 "Hg4 mi
10:30 AM84 °FFog.8 mph74%29.68 "Hg4 mi
10:00 AM82 °FFog.7 mph84%29.68 "Hg4 mi
9:30 AM84 °FFog.7 mph79%29.71 "Hg4 mi
9:00 AM82 °FFog.6 mph84%29.71 "Hg4 mi
8:00 AM81 °FPartly sunny.6 mph84%29.68 "Hg4 mi
Weather by CustomWeather, © 2014

See weather overviewHow to use our weather pages